Weather Service Report


563 
ASUS43 KLSX 291810
RWRMO 

WEATHER SUMMARY FOR MISSOURI
NATIONAL WEATHER SERVICE SPRINGFIELD MO
100 PM CDT SAT AUG 29 2015

NOTE: "FAIR" INDICATES FEW OR NO CLOUDS BELOW 12,000 FEET WITH NO
       SIGNIFICANT WEATHER AND/OR OBSTRUCTIONS TO VISIBILITY.
       CURRENT SKY AND/OR WEATHER CONDITIONS ARE NOT AVAILABLE FOR
       CHILLICOTHE AND FARMINGTON.

MOZ001>031-035>038-043-044-053-054-291900-
...NORTHERN AND WESTERN MISSOURI...
  
CITY           SKY/WX    TMP DP  RH WIND       PRES   REMARKS
KANSAS CTY INT CLOUDY    71  67  87 NW6       30.04S                  
6HR MIN TEMP:  67; 6HR MAX TEMP:  71;                                

KANSAS C DTWN  CLOUDY    73  67  81 N5        30.02S                  
6HR MIN TEMP:  70; 6HR MAX TEMP:  74;                                

LEE'S SUMMIT   PTSUNNY   74  67  78 NW9       30.02F                  
6HR MIN TEMP:  70; 6HR MAX TEMP:  75;                                

ST JOSEPH      CLOUDY    71  66  84 N8        30.04S                  
6HR MIN TEMP:  66; 6HR MAX TEMP:  72;                                

CHILLICOTHE      N/A     77  70  79 N6        30.02S                  
6HR MIN TEMP:  70; 6HR MAX TEMP:  78;                                

KIRKSVILLE     CLOUDY    75  67  76 NE3       30.02F                  
6HR MIN TEMP:  69; 6HR MAX TEMP:  75;                                

     
$$
MOZ066>068-077>081-088>096-101>105-291900-
...SOUTHWEST MISSOURI...
  
CITY           SKY/WX    TMP DP  RH WIND       PRES   REMARKS
SPRINGFIELD    PTSUNNY   79  65  62 S8        30.02F                  
6HR MIN TEMP:  67; 6HR MAX TEMP:  79; 6HR PCP: TRACE;                

JOPLIN         CLOUDY    79  67  66 SW5       30.01F                  
6HR MIN TEMP:  67; 6HR MAX TEMP:  80;                                

               
$$
MOZ032>034-039>042-045>050-055>058-069>072-291900-
...CENTRAL MISSOURI...  
  
CITY           SKY/WX    TMP DP  RH WIND       PRES   REMARKS
COLUMBIA       SUNNY     80  67  64 S9        30.01F                  
6HR MIN TEMP:  67; 6HR MAX TEMP:  80;                                

JEFFERSON CITY MOSUNNY   82  63  52 S6        29.99F                  
6HR MIN TEMP:  69; 6HR MAX TEMP:  82;                                

ROLLA          PTSUNNY   79  69  71 S7        30.03F                  
6HR MIN TEMP:  65; 6HR MAX TEMP:  79; 6HR PCP:  0.15;                

SEDALIA        CLOUDY    78  66  66 SW7       30.02F                  
6HR MIN TEMP:  66; 6HR MAX TEMP:  79;                                

WHITEMAN AFB   PTSUNNY   78  68  71 VRB3      30.00F HAZE             
WARRENSBURG    CLOUDY    77  68  73 SE5       30.00F                  
OSAGE BEACH    SUNNY     82  63  51 SW10      30.02S                  
               
$$
MOZ051-052-059>065-291900-
...EAST CENTRAL MISSOURI...
  
CITY           SKY/WX    TMP DP  RH WIND       PRES   REMARKS
ST LOUIS INTL  CLOUDY    81  65  58 SW8       30.03F                  
6HR MIN TEMP:  73; 6HR MAX TEMP:  82;                                

SPIRIT OF STL  CLOUDY    80  69  69 S6        30.01F                  
6HR MIN TEMP:  69; 6HR MAX TEMP:  80;                                

ST CHARLES     CLOUDY    80  67  64 W7        30.01F                  
6HR MIN TEMP:  67; 6HR MAX TEMP:  81;                                

                   
$$
MOZ072>076-082>087-097>100-106>115-291900-
...SOUTH CENTRAL AND SOUTHEAST MISSOURI...
  
CITY           SKY/WX    TMP DP  RH WIND       PRES   REMARKS
CAPE GIRARDEAU CLOUDY    81  70  69 SW8       30.06F                  
6HR MIN TEMP:  69; 6HR MAX TEMP:  82;                                

FARMINGTON     CLOUDY    73  64  73 S6        30.08F                  
6HR MIN TEMP:  66; 6HR MAX TEMP:  75;                                

POPLAR BLUFF   CLOUDY    78  68  71 SW7       30.06F                  
6HR MIN TEMP:  68; 6HR MAX TEMP:  81; 6HR PCP: TRACE;                

WEST PLAINS    CLOUDY    69  65  86 S6        30.08F                  
6HR MIN TEMP:  65; 6HR MAX TEMP:  70; 6HR PCP:  0.14;                

                                       
$$

Return to Home page


Western Regional Climate Center, wrcc@dri.edu